Probability
0 0 0 0 0 0 0 0 0 0 0 0 0 0 0 0 0 0 0 0 0 0 0 0 0 0 0 0 0 0 0 1 2 2 2 1 0 0
0 0 0 0 0 0 0 0 0 0 0 0 0 0 0 0 0 0 0 0 0 0 0 0 0 0 0 0 0 0 0 0 1 1 1 0 0 0
0 0 0 0 0 0 0 0 0 0 0 0 0 0 0 0 0 0 0 0 0 0 0 0 0 0 0 0 0 0 0 0 0 0 0 0 0 0
0 0 0 0 0 0 0 0 0 0 0 0 0 0 0 0 0 0 0 0 0 0 0 0 0 0 0 0 0 0 0 0 0 0 0 0 0 0
0 0 0 0 0 0 0 0 0 0 0 0 0 0 0 0 0 0 0 0 0 0 0 0 0 0 0 0 0 0 0 0 0 0 0 0 0 0
0 0 0 0 0 0 0 0 0 0 0 0 0 0 0 0 0 0 0 0 0 0 0 0 0 0 0 0 0 0 0 0 0 0 0 0 0 0
0 0 0 0 0 0 0 0 0 0 0 0 0 0 0 0 0 0 0 0 0 0 0 0 0 0 0 0 0 0 0 0 0 0 0 0 0 0
0 0 0 0 0 0 0 0 0 0 0 0 0 0 0 0 0 0 0 0 0 0 0 0 0 0 0 0 0 0 0 0 0 0 0 0 0 0
0 0 0 0 0 0 0 0 0 0 0 0 0 0 0 0 0 0 0 0 0 0 0 0 0 0 0 0 0 0 0 0 0 0 0 0 0 0
0 0 0 0 0 0 0 0 0 0 0 0 0 0 0 0 0 0 0 0 0 0 0 0 0 0 0 0 0 0 0 0 0 0 0 0 0 0
0 0 0 0 0 0 0 0 0 0 0 0 0 0 0 0 0 0 0 0 0 0 0 0 0 0 0 0 0 0 0 0 0 0 0 0 0 0
0 0 0 0 0 0 0 0 0 0 0 0 0 0 0 0 0 0 0 0 0 0 0 0 0 0 0 0 0 0 0 0 0 0 0 0 0 0
0 0 0 0 0 0 0 0 0 0 0 0 0 0 0 0 0 0 0 0 0 0 0 0 0 0 0 0 0 0 0 0 0 0 0 0 0 0
0 0 0 0 0 0 0 0 0 0 0 0 0 0 0 0 0 0 0 0 0 0 0 0 0 0 0 0 0 0 0 0 0 0 0 0 0 0
0 0 0 0 0 0 0 0 0 0 0 0 0 0 0 0 0 0 0 0 0 0 0 0 0 0 0 0 0 0 0 0 0 0 0 0 0 0
0 0 0 0 0 0 0 0 0 0 0 0 0 0 0 0 0 0 0 0 0 0 0 0 0 0 0 0 0 0 0 0 0 0 0 0 0 0
0 0 0 0 0 0 0 0 0 0 0 0 0 0 0 0 0 0 0 0 0 0 0 0 0 0 0 0 0 0 0 0 0 0 0 0 0 0
0 0 0 0 0 0 0 0 0 0 0 0 0 0 0 0 0 0 0 0 0 0 0 0 0 0 0 0 0 0 0 0 0 0 0 0 0 0
0 0 0 0 0 0 0 0 0 0 0 0 0 0 0 0 0 0 0 0 0 0 0 0 0 0 0 0 0 0 0 0 0 0 0 0 0 0
0 0 0 0 0 0 0 0 0 0 0 0 0 0 0 0 0 0 0 0 0 0 0 0 0 0 0 0 0 0 0 0 0 0 0 0 0 0
0 0 0 0 0 0 0 0 0 0 0 0 0 0 0 0 0 0 0 0 0 0 0 0 0 0 0 0 0 0 0 0 0 0 0 0 0 0
0 0 0 0 0 0 0 0 0 0 0 0 0 0 0 0 0 0 0 0 0 0 0 0 0 0 0 0 0 0 0 0 0 0 0 0 0 0
0 0 0 0 0 0 0 0 0 0 0 0 0 0 0 0 0 0 0 0 0 0 0 0 0 0 0 0 0 0 0 0 0 0 0 0 0 0
Wind_Speed
2 2 2 2 2 2 1 2 2 2 3 2 1 1 1 1 3 3 3 6 8 8 9 9 9 9 10 10 10 10 10 11 12 13 13 13 14 14
2 3 3 2 2 2 2 2 2 2 3 2 1 2 2 3 5 4 4 8 8 9 9 8 8 8 9 9 10 10 10 11 12 12 13 13 14 14
3 3 3 3 2 2 2 2 2 2 4 3 2 2 3 3 4 3 3 3 4 8 8 8 8 9 9 9 9 10 10 10 11 12 13 13 14 14
4 4 4 3 3 3 2 2 2 2 3 4 3 2 3 4 3 3 3 4 3 7 8 8 9 9 9 9 10 10 9 10 11 12 13 13 14 14
4 4 4 3 4 3 3 2 2 3 2 3 4 2 3 3 3 3 3 3 4 5 6 7 8 9 9 9 10 9 9 10 11 12 12 13 13 14
3 3 3 3 4 3 3 3 3 2 2 2 3 3 3 3 2 2 3 2 3 4 4 6 7 9 8 9 9 8 9 10 11 11 12 12 12 13
3 3 3 4 5 5 4 3 3 3 2 3 3 3 3 2 2 2 3 3 3 2 2 3 3 3 4 6 7 7 9 10 11 11 12 12 12 12
3 3 3 4 5 7 8 7 5 4 4 3 3 4 4 3 2 2 2 3 3 2 2 4 3 3 3 2 6 8 9 9 10 11 12 12 12 12
3 3 3 3 4 3 5 6 6 7 7 5 5 5 4 3 3 3 3 3 4 3 3 4 3 4 3 4 8 9 9 9 10 11 12 12 12 12
4 3 3 3 3 3 3 3 4 5 6 5 5 5 5 4 4 4 4 4 4 3 2 3 3 4 4 3 7 8 8 9 10 11 11 12 13 12
3 3 3 3 5 6 4 4 4 4 6 7 7 7 7 7 4 2 2 2 4 3 1 2 2 3 3 3 4 6 8 10 11 11 11 12 12 11
2 3 5 5 6 6 4 3 4 4 3 4 4 5 4 5 6 3 3 3 3 3 1 1 2 2 3 2 2 3 4 8 10 11 11 12 12 7
2 2 3 6 7 6 5 3 5 4 3 3 3 2 2 2 2 3 3 3 3 3 2 1 2 2 2 4 3 3 3 3 4 6 8 10 11 8
3 2 3 5 6 5 4 4 5 4 2 2 2 2 2 2 2 2 3 3 3 4 4 3 3 3 3 4 4 3 3 3 3 4 4 7 8 9
2 4 5 6 5 3 4 5 4 2 2 2 2 3 2 2 2 1 1 1 2 3 3 3 3 3 3 4 4 4 4 3 3 3 3 4 4 4
3 3 4 4 3 3 3 3 2 2 2 2 2 2 2 2 2 1 1 1 1 2 2 2 2 3 3 4 4 4 3 3 3 3 3 3 3 3
2 1 1 1 1 1 1 2 2 2 2 1 2 2 2 2 2 1 1 1 1 2 2 2 2 2 3 3 3 4 3 3 3 3 3 4 3 3
2 1 2 1 2 2 2 2 2 1 1 1 1 2 2 2 2 1 1 1 2 2 2 2 2 2 2 2 3 3 2 2 3 3 2 3 4 3
2 2 2 2 2 2 2 1 2 1 1 1 2 2 2 2 2 2 2 2 2 2 2 2 2 2 2 3 3 2 2 3 3 3 2 2 4 4
1 2 2 2 2 2 2 2 2 1 1 1 1 2 2 2 2 2 2 2 2 2 2 2 2 2 2 3 3 3 4 3 3 3 3 3 3 4
2 2 2 2 2 2 2 2 2 2 2 1 2 2 2 2 2 2 2 2 2 2 3 3 3 4 2 1 2 3 3 3 3 3 3 3 3 3
2 2 2 2 2 2 2 2 2 2 2 2 2 2 2 2 2 2 2 2 2 2 3 2 2 1 1 1 2 3 4 3 4 5 5 4 3 3
2 2 2 2 2 2 2 2 2 2 2 2 2 1 1 1 1 2 1 1 1 2 2 2 1 1 1 2 2 2 3 4 3 3 3 5 5 6
Wind_Direction
217 224 228 235 238 243 243 228 216 259 270 261 284 320 317 305 299 295 283 294 297 296 296 300 302 305 309 312 311 311 315 318 318 317 315 314 314 314
222 225 234 234 233 237 240 244 229 231 259 269 280 298 308 309 303 300 287 300 299 299 297 300 304 308 310 311 311 312 315 317 317 315 315 315 314 313
235 231 236 231 227 232 232 231 234 227 254 275 281 301 302 295 296 294 292 284 286 297 299 303 308 306 304 305 306 308 312 315 315 314 315 316 316 316
238 235 237 237 233 230 226 230 234 232 243 272 287 289 286 286 289 294 303 301 292 296 297 300 307 307 305 307 309 308 310 314 315 316 315 315 317 316
242 238 237 233 240 236 231 235 241 255 245 262 278 282 290 294 298 299 301 299 298 292 296 303 305 308 308 312 312 312 315 318 317 316 315 315 317 317
250 244 241 233 234 233 235 235 238 250 257 264 275 284 287 288 287 298 307 302 299 301 303 308 308 307 306 307 311 314 317 317 317 318 318 318 318 318
257 252 247 241 246 242 240 228 229 240 247 260 271 281 279 285 281 284 297 306 300 295 309 306 307 298 297 301 309 314 318 319 319 319 320 319 318 319
254 256 251 246 255 258 256 251 243 238 241 248 260 268 270 273 280 285 297 308 301 299 313 299 297 288 284 279 303 313 317 319 323 325 324 322 321 321
256 258 267 262 261 241 251 259 263 265 255 250 256 262 266 265 263 272 277 280 277 280 299 292 294 290 291 295 304 309 315 324 328 326 325 324 323 321
258 254 253 270 259 248 235 241 248 257 258 256 247 255 258 253 246 256 264 280 283 279 277 283 292 291 302 292 296 309 318 323 323 322 324 326 326 324
260 254 248 254 263 258 246 242 253 260 268 267 262 261 263 265 269 264 262 278 290 287 275 265 287 303 294 282 291 313 320 319 318 321 324 327 328 327
270 259 252 256 263 259 242 235 253 263 272 281 276 273 265 257 261 242 227 247 278 279 257 275 288 320 307 287 292 305 306 308 315 321 324 326 329 328
267 267 262 269 269 263 258 236 253 265 259 263 267 266 266 255 244 237 229 227 244 257 249 273 276 282 275 292 296 288 290 304 310 312 317 323 327 329
257 266 270 279 277 269 262 264 272 281 264 256 267 275 274 268 262 254 249 244 239 246 245 245 257 263 280 289 292 293 299 298 300 304 308 318 321 324
259 271 279 283 279 269 270 273 274 257 252 257 263 268 267 265 269 275 281 278 283 272 257 257 253 262 264 276 285 290 300 296 291 302 308 314 317 322
276 279 285 288 284 270 269 268 251 237 242 250 262 268 276 271 269 268 279 292 300 300 294 282 259 251 270 275 273 281 286 285 299 305 308 311 316 319
284 275 277 285 283 274 264 261 253 251 252 250 254 270 282 284 281 277 278 282 280 287 302 308 297 267 249 259 273 276 281 286 289 306 313 313 317 320
283 274 266 264 263 269 272 272 255 252 248 252 258 266 275 277 281 286 280 273 274 279 287 295 306 314 305 283 250 266 280 288 298 303 301 305 312 320
265 265 266 260 261 267 269 272 273 274 261 246 253 261 265 262 257 263 273 278 281 282 282 281 281 283 298 301 300 286 290 294 298 299 293 294 299 307
264 262 263 259 256 258 263 263 266 266 255 248 253 257 255 253 255 261 265 267 282 289 287 274 261 266 266 278 289 298 295 282 292 295 300 296 292 298
273 266 265 260 256 256 258 256 253 253 256 247 245 250 251 251 253 258 263 276 281 276 275 277 273 295 294 296 297 300 301 301 295 291 298 298 299 307
272 266 264 264 256 251 254 256 253 247 248 247 249 249 248 246 246 250 258 263 270 274 283 289 293 301 291 281 286 296 308 316 319 315 303 287 280 294
277 273 266 268 262 254 249 250 253 253 250 250 250 245 243 250 251 249 249 250 270 277 287 298 311 314 301 281 282 293 302 308 313 321 313 307 291 287